DL2ARH-7 Weather Reports


time (UTC)temp
C
wind
direction
speed
KPH
gust
KPH
rain 1hr
cm
rain 24hr
cm
rain mn
cm
humidity
%
barometer
mb
20260507111338 8 120 0.0 0.0 0.00 0.00 0.00 93 1012.9
20260507111224 7 100 0.0 0.0 0.00 0.00 0.00 93 1012.8
20260507111116 7 50 0.0 0.0 0.00 0.00 0.00 93 1012.8
20260507111010 8 100 0.0 0.0 0.00 0.00 0.00 93 1012.7
20260507110903 7 75 0.0 0.0 0.00 0.00 0.00 93 1012.8
20260507110650 7 85 0.0 0.0 0.00 0.00 0.00 93 1012.9
20260507110544 7 125 0.0 0.0 0.00 0.00 0.00 93 1012.9
20260507110440 8 65 0.0 0.0 0.00 0.00 0.00 93 1012.7
20260507110224 7 85 0.0 0.0 0.00 0.00 0.00 93 1012.9
20260507110118 8 135 0.0 0.0 0.00 0.00 0.00 93 1012.8
20260507110011 7 50 0.0 0.0 0.00 0.00 0.00 93 1012.8
20260507105905 7 65 0.0 0.0 0.00 0.00 0.00 93 1012.8
20260507105658 7 115 0.0 0.0 0.00 0.00 0.00 93 1012.7
20260507105545 7 70 0.0 0.0 0.00 0.00 0.00 93 1012.8
20260507105439 7 70 0.0 0.0 0.00 0.00 0.00 93 1012.8
20260507105226 7 85 0.0 0.0 0.00 0.00 0.00 93 1012.7
20260507105119 7 110 0.0 0.0 0.00 0.00 0.00 93 1012.8
20260507105013 7 85 0.0 0.0 0.00 0.00 0.00 93 1012.9
20260507104907 7 70 0.0 0.0 0.00 0.00 0.00 93 1012.7
20260507104547 7 80 0.0 0.0 0.00 0.00 0.00 93 1012.8
20260507104333 7 80 0.0 0.0 0.00 0.00 0.00 93 1012.7
20260507104121 7 75 0.0 0.0 0.00 0.00 0.00 93 1012.7
20260507103909 7 85 19.3 0.0 0.00 0.00 0.00 93 1012.6
20260507103802 7 100 0.0 0.0 0.00 0.00 0.00 93 1012.6
20260507103655 7 60 0.0 0.0 0.00 0.00 0.00 93 1012.6
20260507103442 7 70 0.0 0.0 0.00 0.00 0.00 93 1012.6
20260507103229 7 90 0.0 0.0 0.00 0.00 0.00 93 1012.6
20260507103015 7 90 0.0 0.0 0.00 0.00 0.00 93 1012.6
20260507102910 7 70 0.0 0.0 0.00 0.00 0.00 93 1012.7
20260507102551 7 85 0.0 0.0 0.00 0.00 0.00 93 1012.4
20260507102230 7 75 0.0 0.0 0.00 0.00 0.00 93 1012.4
20260507102124 7 120 0.0 0.0 0.00 0.00 0.00 93 1012.5
20260507102018 7 90 0.0 0.0 0.00 0.00 0.00 93 1012.5
20260507101911 7 165 0.0 0.0 0.00 0.00 0.00 93 1012.4
20260507101658 7 60 0.0 0.0 0.00 0.00 0.00 93 1012.5
20260507101551 8 60 0.0 0.0 0.00 0.00 0.00 93 1012.4
20260507101446 8 85 0.0 0.0 0.00 0.00 0.00 93 1012.5
20260507101338 7 140 0.0 0.0 0.00 0.00 0.00 93 1012.4
20260507101231 7 130 0.0 0.0 0.00 0.00 0.00 93 1012.4
20260507101125 7 105 0.0 0.0 0.00 0.00 0.00 93 1012.5
20260507100659 7 120 0.0 0.0 0.00 0.00 0.00 93 1012.4
20260507100553 7 50 0.0 0.0 0.00 0.00 0.00 93 1012.3
20260507100447 7 80 0.0 0.0 0.00 0.00 0.00 93 1012.5
20260507100233 7 125 0.0 0.0 0.00 0.00 0.00 93 1012.3
20260507100127 8 70 0.0 0.0 0.00 0.00 0.00 93 1012.4
20260507095914 7 100 0.0 0.0 0.00 0.00 0.00 93 1012.3
20260507095701 7 95 0.0 0.0 0.00 0.00 0.00 93 1012.5
20260507095554 7 105 0.0 0.0 0.00 0.00 0.00 93 1012.2
20260507095448 7 110 0.0 0.0 0.00 0.00 0.00 93 1012.1
20260507095341 8 80 0.0 0.0 0.00 0.00 0.00 93 1012.3
20260507095235 8 80 0.0 0.0 0.00 0.00 0.00 93 1012.2
20260507095128 7 50 0.0 0.0 0.00 0.00 0.00 93 1012.3
20260507094915 7 70 0.0 0.0 0.00 0.00 0.00 93 1012.2
20260507094703 8 110 0.0 0.0 0.00 0.00 0.00 93 1012.1
20260507094556 7 215 0.0 0.0 0.00 0.00 0.00 93 1012.1
20260507094449 8 65 0.0 0.0 0.00 0.00 0.00 93 1012.1
20260507094343 8 100 0.0 0.0 0.00 0.00 0.00 93 1012.1
20260507094236 7 80 0.0 0.0 0.00 0.00 0.00 93 1012.2
20260507094024 8 110 0.0 0.0 0.00 0.00 0.00 93 1012.0
20260507093916 8 130 0.0 0.0 0.00 0.00 0.00 93 1012.0
20260507093812 7 120 0.0 0.0 0.00 0.00 0.00 93 1012.0
20260507093704 7 70 0.0 0.0 0.00 0.00 0.00 93 1012.0
20260507093557 7 165 0.0 0.0 0.00 0.00 0.00 93 1012.1
20260507093451 7 95 0.0 0.0 0.00 0.00 0.00 93 1012.0
20260507093344 7 100 0.0 0.0 0.00 0.00 0.00 93 1012.0
20260507093238 8 80 0.0 0.0 0.00 0.00 0.00 93 1012.0
20260507093132 8 95 0.0 0.0 0.00 0.00 0.00 93 1012.0
20260507093024 7 80 0.0 0.0 0.00 0.00 0.00 93 1011.8
20260507092918 8 50 0.0 0.0 0.00 0.00 0.00 93 1011.9
20260507092705 8 125 0.0 0.0 0.00 0.00 0.00 93 1011.8
20260507092558 8 55 0.0 0.0 0.00 0.00 0.00 93 1011.9
20260507092452 8 55 0.0 0.0 0.00 0.00 0.00 93 1011.8
20260507092346 7 75 0.0 0.0 0.00 0.00 0.00 93 1011.8
20260507092240 8 75 0.0 0.0 0.00 0.00 0.00 93 1011.8
20260507092134 8 60 0.0 0.0 0.00 0.00 0.00 93 1011.9
20260507092026 8 75 0.0 0.0 0.00 0.00 0.00 93 1011.7
20260507091814 8 100 0.0 0.0 0.00 0.00 0.00 93 1011.7
20260507091706 8 60 0.0 0.0 0.00 0.00 0.00 93 1011.7
20260507091600 7 85 0.0 0.0 0.00 0.00 0.00 93 1011.7
20260507091348 8 120 6.4 0.0 0.00 0.00 0.00 93 1011.6
20260507091240 8 135 0.0 0.0 0.00 0.00 0.00 93 1011.7
20260507091134 8 70 0.0 0.0 0.00 0.00 0.00 93 1011.8
20260507091027 8 45 0.0 0.0 0.00 0.00 0.00 93 1011.6
20260507090921 8 155 0.0 0.0 0.00 0.00 0.00 93 1011.7
20260507090815 8 65 29.0 0.0 0.00 0.00 0.00 93 1011.5
20260507090708 8 60 0.0 0.0 0.00 0.00 0.00 93 1011.5
20260507090601 8 85 0.0 0.0 0.00 0.00 0.00 93 1011.5
20260507090456 8 75 0.0 0.0 0.00 0.00 0.00 93 1011.6
20260507090351 8 160 0.0 0.0 0.00 0.00 0.00 93 1011.4
20260507090245 8 55 0.0 0.0 0.00 0.00 0.00 93 1011.5
20260507090137 8 90 0.0 0.0 0.00 0.00 0.00 93 1011.4
20260507090029 8 75 0.0 0.0 0.00 0.00 0.00 93 1011.4
20260507085923 8 150 0.0 0.0 0.00 0.00 0.00 93 1011.4
20260507085816 8 130 0.0 0.0 0.00 0.00 0.00 93 1011.3
20260507085712 8 45 0.0 0.0 0.00 0.00 0.00 93 1011.5
20260507085603 8 60 0.0 0.0 0.00 0.00 0.00 93 1011.3
20260507085456 8 90 0.0 0.0 0.00 0.00 0.00 93 1011.2
20260507085244 8 90 0.0 0.0 0.00 0.00 0.00 92 1011.3
20260507085137 8 75 0.0 0.0 0.00 0.00 0.00 93 1011.4
20260507085031 8 95 0.0 0.0 0.00 0.00 0.00 93 1011.3
20260507084924 8 110 0.0 0.0 0.00 0.00 0.00 93 1011.2
20260507084712 8 115 0.0 0.0 0.00 0.00 0.00 93 1011.3
20260507084604 8 95 0.0 0.0 0.00 0.00 0.00 93 1011.2
20260507084458 8 80 0.0 0.0 0.00 0.00 0.00 93 1011.1
20260507084352 8 170 0.0 0.0 0.00 0.00 0.00 93 1011.1
20260507084032 8 45 0.0 0.0 0.00 0.00 0.00 93 1011.0
20260507083926 8 70 0.0 0.0 0.00 0.00 0.00 93 1010.9
20260507083820 8 50 0.0 0.0 0.00 0.00 0.00 93 1011.0
20260507083606 8 60 0.0 0.0 0.00 0.00 0.00 93 1011.0
20260507083459 8 75 0.0 0.0 0.00 0.00 0.00 93 1010.9
20260507083353 8 75 9.7 0.0 0.00 0.00 0.00 93 1011.0
20260507083247 8 50 0.0 0.0 0.00 0.00 0.00 93 1010.8
20260507083140 8 50 0.0 0.0 0.00 0.00 0.00 93 1010.9
20260507083033 8 90 0.0 0.0 0.00 0.00 0.00 93 1010.8
20260507082927 8 50 0.0 0.0 0.00 0.00 0.00 93 1010.8
20260507082714 8 55 0.0 0.0 0.00 0.00 0.00 93 1010.9
20260507082607 8 95 0.0 0.0 0.00 0.00 0.00 93 1010.9
20260507082501 8 85 0.0 0.0 0.00 0.00 0.00 93 1010.8
20260507082354 8 75 0.0 0.0 0.00 0.00 0.00 93 1010.8
20260507082248 8 60 0.0 0.0 0.00 0.00 0.00 93 1010.7
20260507082141 8 50 0.0 0.0 0.00 0.00 0.00 93 1010.7
20260507081929 8 150 0.0 0.0 0.00 0.00 0.00 93 1010.8
20260507081716 8 110 0.0 0.0 0.00 0.00 0.00 93 1010.5
20260507081609 8 80 0.0 0.0 0.00 0.00 0.00 93 1010.7
20260507081502 8 145 0.0 0.0 0.00 0.00 0.00 93 1010.7
20260507081356 8 75 3.2 0.0 0.00 0.00 0.00 93 1010.5
20260507081249 8 145 0.0 0.0 0.00 0.00 0.00 93 1010.7
20260507081036 8 85 0.0 0.0 0.00 0.00 0.00 93 1010.5
20260507080931 8 115 0.0 0.0 0.00 0.00 0.00 93 1010.5
20260507080825 8 130 0.0 0.0 0.00 0.00 0.00 93 1010.6
20260507080717 8 75 0.0 0.0 0.00 0.00 0.00 93 1010.6
20260507080610 8 50 0.0 0.0 0.00 0.00 0.00 93 1010.5
20260507080504 8 80 0.0 0.0 0.00 0.00 0.00 93 1010.5
20260507080359 8 120 0.0 0.0 0.00 0.00 0.00 93 1010.5
20260507080144 8 60 0.0 0.0 0.00 0.00 0.00 93 1010.2
20260507080038 8 120 0.0 0.0 0.00 0.00 0.00 93 1010.3
20260507075932 8 100 0.0 0.0 0.00 0.00 0.00 93 1010.4
20260507075718 8 65 0.0 0.0 0.00 0.00 0.00 93 1010.3
20260507075359 8 130 0.0 0.0 0.00 0.00 0.00 93 1010.3
20260507075252 8 55 0.0 0.0 0.00 0.00 0.00 93 1010.4
20260506172948 15 160 0.0 0.0 0.00 0.00 0.00 80 1004.7
20260506172841 15 215 0.0 0.0 0.00 0.00 0.00 79 1004.8
20260506172735 16 70 0.0 0.0 0.00 0.00 0.00 79 1004.7
20260506172629 15 60 0.0 0.0 0.00 0.00 0.00 79 1004.7
20260506172522 16 90 0.0 0.0 0.00 0.00 0.00 78 1004.7
20260506172203 16 45 0.0 0.0 0.00 0.00 0.00 77 1004.7
20260506172056 16 80 0.0 0.0 0.00 0.00 0.00 76 1004.7
20260506171949 16 70 0.0 0.0 0.00 0.00 0.00 76 1004.7
20260506171843 16 45 0.0 0.0 0.00 0.00 0.00 75 1004.8
20260506171630 16 100 0.0 0.0 0.00 0.00 0.00 74 1004.7
20260506171523 16 90 0.0 0.0 0.00 0.00 0.00 74 1004.7
20260506171419 16 105 0.0 0.0 0.00 0.00 0.00 74 1004.6
20260506171311 16 80 0.0 0.0 0.00 0.00 0.00 73 1004.7
20260506171204 16 75 0.0 0.0 0.00 0.00 0.00 82 1004.6
20260506171058 16 85 0.0 0.0 0.00 0.00 0.00 73 1004.8
20260506170951 16 90 0.0 0.0 0.00 0.00 0.00 72 1004.6
20260506170844 16 110 0.0 0.0 0.00 0.00 0.00 72 1004.6
20260506170631 16 75 0.0 0.0 0.00 0.00 0.00 71 1004.7
20260506170525 16 80 0.0 0.0 0.00 0.00 0.00 71 1004.7
20260506170313 16 75 0.0 0.0 0.00 0.00 0.00 71 1004.5
20260506170206 16 65 0.0 0.0 0.00 0.00 0.00 70 1004.6
20260506170059 16 155 0.0 0.0 0.00 0.00 0.00 71 1004.7
20260506165953 16 105 0.0 0.0 0.00 0.00 0.00 70 1004.6
20260506165847 16 75 0.0 0.0 0.00 0.00 0.00 70 1004.7
20260506165740 16 75 0.0 0.0 0.00 0.00 0.00 70 1004.7
20260506165634 16 65 0.0 0.0 0.00 0.00 0.00 69 1004.6
20260506165528 16 90 0.0 0.0 0.00 0.00 0.00 69 1004.6
20260506165314 16 90 0.0 0.0 0.00 0.00 0.00 67 1004.6
20260506165207 17 60 0.0 0.0 0.00 0.00 0.00 66 1004.6
20260506165100 17 70 0.0 0.0 0.00 0.00 0.00 65 1004.6
20260506164954 17 75 16.1 0.0 0.00 0.00 0.00 64 1004.5
20260506164849 17 60 0.0 0.0 0.00 0.00 0.00 62 1004.6
20260506164743 17 75 9.7 0.0 0.00 0.00 0.00 60 1004.7
20260506164636 17 175 0.0 0.0 0.00 0.00 0.00 58 1004.6
20260506164528 17 135 0.0 0.0 0.00 0.00 0.00 57 1004.6
20260506164422 17 70 0.0 0.0 0.00 0.00 0.00 55 1004.7
20260506164316 17 110 0.0 0.0 0.00 0.00 0.00 53 1004.6
20260506164209 17 60 0.0 0.0 0.00 0.00 0.00 50 1004.7
20260506164103 17 70 0.0 0.0 0.00 0.00 0.00 48 1004.6
20260506163746 17 135 0.0 0.0 0.00 0.00 0.00 40 1004.6
20260506163637 17 90 0.0 0.0 0.00 0.00 0.00 37 1004.7
20260506163531 17 45 0.0 0.0 0.00 0.00 0.00 34 1004.6
20260506163424 18 65 0.0 0.0 0.00 0.00 0.00 30 1004.7
20260506163316 18 75 0.0 0.0 0.00 0.00 0.00 26 1004.6
20260506163210 18 65 0.0 0.0 0.00 0.00 0.00 23 1004.5
20260506163104 18 60 0.0 0.0 0.00 0.00 0.00 23 1004.6
20260506162850 18 195 0.0 0.0 0.00 0.00 0.00 23 1004.6
20260506162744 18 195 0.0 0.0 0.00 0.00 0.00 23 1004.4
20260506162638 18 185 0.0 0.0 0.00 0.00 0.00 23 1004.5
20260506162531 18 205 0.0 0.0 0.00 0.00 0.00 23 1004.5
20260506162425 18 175 0.0 0.0 0.00 0.00 0.00 23 1004.5
20260506162212 18 185 0.0 0.0 0.00 0.00 0.00 22 1004.4
20260506162107 18 195 0.0 0.0 0.00 0.00 0.00 22 1004.4
20260506161852 18 175 0.0 0.0 0.00 0.00 0.00 22 1004.6
20260506161746 18 220 0.0 0.0 0.00 0.00 0.00 22 1004.5
20260506161639 18 200 0.0 0.0 0.00 0.00 0.00 22 1004.5
20260506161533 18 195 0.0 0.0 0.00 0.00 0.00 22 1004.4
20260506161428 18 215 0.0 0.0 0.00 0.00 0.00 22 1004.5
20260506161320 18 215 0.0 0.0 0.00 0.00 0.00 22 1004.3
20260506161213 18 190 0.0 0.0 0.00 0.00 0.00 22 1004.4
20260506161107 18 210 0.0 0.0 0.00 0.00 0.00 22 1004.4
20260506161001 18 210 0.0 0.0 0.00 0.00 0.00 22 1004.4
20260506160854 19 200 0.0 0.0 0.00 0.00 0.00 21 1004.4
20260506160747 18 170 0.0 0.0 0.00 0.00 0.00 21 1004.4
20260506160640 19 205 0.0 0.0 0.00 0.00 0.00 21 1004.5
20260506160534 19 205 0.0 0.0 0.00 0.00 0.00 21 1004.3
20260506160428 19 150 0.0 0.0 0.00 0.00 0.00 20 1004.5
20260506160214 40 150 0.0 0.0 0.00 0.00 0.00 19 1004.4
20260506160108 19 215 0.0 0.0 0.00 0.00 0.00 19 1004.5
20260506160003 19 210 0.0 0.0 0.00 0.00 0.00 19 1004.4
20260506155855 19 115 0.0 0.0 0.00 0.00 0.00 19 1004.4
20260506155748 19 195 0.0 0.0 0.00 0.00 0.00 19 1004.4
20260506155645 19 180 0.0 0.0 0.00 0.00 0.00 19 1004.3
20260506155536 19 195 0.0 0.0 0.00 0.00 0.00 19 1004.4
20260506155428 20 210 0.0 0.0 0.00 0.00 0.00 19 1004.4
20260506155322 20 220 0.0 0.0 0.00 0.00 0.00 19 1004.4
20260506155107 20 220 0.0 0.0 0.00 0.00 0.00 19 1004.3
20260506155000 20 220 0.0 0.0 0.00 0.00 0.00 18 1004.4
20260506154853 20 205 0.0 0.0 0.00 0.00 0.00 18 1004.3
20260506154746 20 195 0.0 0.0 0.00 0.00 0.00 18 1004.5
20260506154640 20 220 0.0 0.0 0.00 0.00 0.00 18 1004.4
20260506154535 20 130 0.0 0.0 0.00 0.00 0.00 18 1004.4
20260506154427 20 215 0.0 0.0 0.00 0.00 0.00 18 1004.4
20260506154323 20 140 0.0 0.0 0.00 0.00 0.00 19 1004.4
20260506154214 20 190 0.0 0.0 0.00 0.00 0.00 19 1004.5
20260506154108 20 195 0.0 0.0 0.00 0.00 0.00 20 1004.5
20260506154003 23 220 0.0 0.0 0.00 0.00 0.00 20 1004.6
20260506153748 20 220 0.0 0.0 0.00 0.00 0.00 20 1004.6
20260506153641 20 195 0.0 0.0 0.00 0.00 0.00 20 1004.6
20260506153535 20 220 0.0 0.0 0.00 0.00 0.00 20 1004.6
20260506153428 20 190 0.0 0.0 0.00 0.00 0.00 20 1004.5
20260506153215 19 210 0.0 0.0 0.00 0.00 0.00 20 1004.5
20260506153108 20 190 0.0 0.0 0.00 0.00 0.00 19 1004.6
20260506153002 20 205 0.0 0.0 0.00 0.00 0.00 19 1004.6
20260506152855 20 210 0.0 0.0 0.00 0.00 0.00 19 1004.6
20260506152749 20 185 0.0 0.0 0.00 0.00 0.00 19 1004.6
20260506152642 20 155 0.0 0.0 0.00 0.00 0.00 19 1004.6
20260506152536 20 210 0.0 0.0 0.00 0.00 0.00 19 1004.6
20260506152429 19 185 0.0 0.0 0.00 0.00 0.00 19 1004.6
20260506152002 20 215 0.0 0.0 0.00 0.00 0.00 18 1004.8
20260506151856 20 200 0.0 0.0 0.00 0.00 0.00 19 1004.7
20260506151749 20 210 0.0 0.0 0.00 0.00 0.00 19 1004.8
20260506151643 20 200 0.0 0.0 0.00 0.00 0.00 19 1004.6
20260506151536 20 210 0.0 0.0 0.00 0.00 0.00 19 1004.7
20260506151429 20 215 6.4 0.0 0.00 0.00 0.00 19 1004.7
20260506151323 20 210 0.0 0.0 0.00 0.00 0.00 19 1004.8
20260506151111 20 210 0.0 0.0 0.00 0.00 0.00 19 1004.7
20260506151005 20 185 0.0 0.0 0.00 0.00 0.00 19 1004.8
20260506150857 20 180 0.0 0.0 0.00 0.00 0.00 19 1004.8
20260506150751 20 215 0.0 0.0 0.00 0.00 0.00 19 1004.7
20260506150644 20 140 0.0 0.0 0.00 0.00 0.00 19 1004.8
20260506150538 20 200 0.0 0.0 0.00 0.00 0.00 19 1004.7
20260506150431 20 215 0.0 0.0 0.00 0.00 0.00 19 1004.7
20260506150326 20 135 0.0 0.0 0.00 0.00 0.00 19 1004.7
20260506150218 20 190 0.0 0.0 0.00 0.00 0.00 19 1004.6
20260506150111 20 195 0.0 0.0 0.00 0.00 0.00 19 1004.7
20260506150006 20 220 0.0 0.0 0.00 0.00 0.00 19 1004.8
20260506145859 20 220 0.0 0.0 0.00 0.00 0.00 19 1004.6
20260506145751 20 215 0.0 0.0 0.00 0.00 0.00 19 1004.7
20260506145643 20 150 0.0 0.0 0.00 0.00 0.00 19 1004.8
20260506145538 20 210 0.0 0.0 0.00 0.00 0.00 19 1004.7
20260506145431 20 205 0.0 0.0 0.00 0.00 0.00 19 1004.6
20260506145323 20 215 0.0 0.0 0.00 0.00 0.00 19 1004.8
20260506145217 20 205 0.0 0.0 0.00 0.00 0.00 19 1004.7
20260506145110 20 170 0.0 0.0 0.00 0.00 0.00 19 1004.8
20260506145003 20 210 0.0 0.0 0.00 0.00 0.00 18 1004.7
20260506144857 20 220 0.0 0.0 0.00 0.00 0.00 18 1004.9
20260506144751 20 200 0.0 0.0 0.00 0.00 0.00 18 1004.8
20260506144643 20 160 0.0 0.0 0.00 0.00 0.00 18 1004.7
20260506144535 20 180 0.0 0.0 0.00 0.00 0.00 18 1004.8
20260506144429 20 215 0.0 0.0 0.00 0.00 0.00 19 1004.6
20260506144323 20 200 0.0 0.0 0.00 0.00 0.00 19 1004.7
20260506144216 20 195 0.0 0.0 0.00 0.00 0.00 19 1004.8
20260506144111 40 155 0.0 0.0 0.00 0.00 0.00 19 1004.8
20260506143856 40 200 0.0 0.0 0.00 0.00 0.00 19 1004.7
20260506143750 20 180 0.0 0.0 0.00 0.00 0.00 20 1004.7
20260506143646 20 180 0.0 0.0 0.00 0.00 0.00 20 1004.8
20260506143538 20 200 0.0 0.0 0.00 0.00 0.00 20 1004.8
20260506143215 20 160 0.0 0.0 0.00 0.00 0.00 20 1004.8
20260506143108 20 215 0.0 0.0 0.00 0.00 0.00 20 1004.8
20260506143003 20 195 0.0 0.0 0.00 0.00 0.00 20 1004.8
20260506142855 20 215 0.0 0.0 0.00 0.00 0.00 20 1004.8
20260506142748 20 220 0.0 0.0 0.00 0.00 0.00 20 1004.8
20260506142642 20 200 0.0 0.0 0.00 0.00 0.00 20 1004.8
20260506142535 20 205 0.0 0.0 0.00 0.00 0.00 21 1004.7
20260506142428 20 170 0.0 0.0 0.00 0.00 0.00 21 1004.8
20260506142110 20 210 0.0 0.0 0.00 0.00 0.00 21 1004.8
20260506142003 20 155 0.0 0.0 0.00 0.00 0.00 21 1004.9
20260506141856 20 180 0.0 0.0 0.00 0.00 0.00 21 1004.9
20260506141750 20 195 0.0 0.0 0.00 0.00 0.00 21 1004.6
20260506141643 20 175 0.0 0.0 0.00 0.00 0.00 21 1004.8
20260506141538 20 205 0.0 0.0 0.00 0.00 0.00 21 1004.9
20260506141430 20 185 0.0 0.0 0.00 0.00 0.00 22 1004.9
20260506141324 20 185 6.4 0.0 0.00 0.00 0.00 22 1004.8
20260506141110 20 185 0.0 0.0 0.00 0.00 0.00 22 1004.8
20260506141005 40 210 0.0 0.0 0.00 0.00 0.00 22 1004.8
20260506140858 20 210 0.0 0.0 0.00 0.00 0.00 22 1004.9
20260506140751 40 200 9.7 0.0 0.00 0.00 0.00 21 1005.0
20260506140645 40 155 0.0 0.0 0.00 0.00 0.00 22 1004.7
20260506140538 41 175 12.9 0.0 0.00 0.00 0.00 21 1004.9
20260506140431 20 195 0.0 0.0 0.00 0.00 0.00 22 1004.8
20260506140326 20 210 0.0 0.0 0.00 0.00 0.00 22 1004.9
20260506140219 20 210 0.0 0.0 0.00 0.00 0.00 22 1004.8
20260506140113 19 170 0.0 0.0 0.00 0.00 0.00 22 1004.9
20260506135753 19 205 0.0 0.0 0.00 0.00 0.00 21 1004.9
20260506135646 20 205 12.9 0.0 0.00 0.00 0.00 21 1004.9
20260506135540 20 155 0.0 0.0 0.00 0.00 0.00 21 1004.8
20260506135433 20 215 6.4 0.0 0.00 0.00 0.00 21 1004.9
20260506135327 20 190 19.3 0.0 0.00 0.00 0.00 20 1004.9
20260506135114 20 155 22.5 0.0 0.00 0.00 0.00 20 1004.9
20260506135007 20 170 0.0 0.0 0.00 0.00 0.00 20 1005.0
20260506134650 20 210 0.0 0.0 0.00 0.00 0.00 20 1005.0
20260506134542 20 60 0.0 0.0 0.00 0.00 0.00 20 1004.9
20260506134434 20 180 0.0 0.0 0.00 0.00 0.00 20 1005.0
20260506134327 20 210 0.0 0.0 0.00 0.00 0.00 20 1005.0
20260506134221 20 205 0.0 0.0 0.00 0.00 0.00 20 1005.1
20260506134114 20 215 0.0 0.0 0.00 0.00 0.00 20 1005.0
20260506134007 20 195 0.0 0.0 0.00 0.00 0.00 20 1004.9
20260506133755 20 150 0.0 0.0 0.00 0.00 0.00 20 1005.0
20260506133648 20 190 0.0 0.0 0.00 0.00 0.00 20 1005.1
20260506133543 20 200 12.9 0.0 0.00 0.00 0.00 20 1004.9
20260506133435 41 205 0.0 0.0 0.00 0.00 0.00 20 1005.1
20260506133225 20 195 0.0 0.0 0.00 0.00 0.00 21 1005.0
20260506133115 20 185 0.0 0.0 0.00 0.00 0.00 22 1005.0
20260506133009 20 195 0.0 0.0 0.00 0.00 0.00 22 1005.0
20260506132903 20 140 0.0 0.0 0.00 0.00 0.00 22 1004.9
20260506132800 20 185 0.0 0.0 0.00 0.00 0.00 22 1005.0
20260506132649 20 210 0.0 0.0 0.00 0.00 0.00 22 1005.0
20260506132543 20 180 0.0 0.0 0.00 0.00 0.00 22 1004.9
20260506132437 20 215 0.0 0.0 0.00 0.00 0.00 22 1004.9
20260506132330 20 190 0.0 0.0 0.00 0.00 0.00 22 1005.0
20260506132224 20 215 0.0 0.0 0.00 0.00 0.00 23 1005.0
20260506132117 20 110 0.0 0.0 0.00 0.00 0.00 23 1005.0
20260506132011 20 170 0.0 0.0 0.00 0.00 0.00 23 1005.0
20260506131905 20 180 0.0 0.0 0.00 0.00 0.00 23 1005.0
20260506131758 20 175 0.0 0.0 0.00 0.00 0.00 23 1005.1
20260506131651 20 195 0.0 0.0 0.00 0.00 0.00 23 1005.1
20260506131545 19 180 0.0 0.0 0.00 0.00 0.00 23 1005.1
20260506131439 20 170 0.0 0.0 0.00 0.00 0.00 23 1005.0
20260506131332 20 155 0.0 0.0 0.00 0.00 0.00 23 1005.1
20260506131225 20 200 0.0 0.0 0.00 0.00 0.00 23 1005.0
20260506131119 20 205 0.0 0.0 0.00 0.00 0.00 23 1005.2
20260506130907 19 155 0.0 0.0 0.00 0.00 0.00 24 1005.2
20260506130800 19 180 0.0 0.0 0.00 0.00 0.00 24 1005.3
20260506130653 19 130 0.0 0.0 0.00 0.00 0.00 24 1005.1
20260506130547 19 165 0.0 0.0 0.00 0.00 0.00 24 1005.2
20260506130440 19 200 0.0 0.0 0.00 0.00 0.00 24 1005.1
20260506130334 19 215 0.0 0.0 0.00 0.00 0.00 24 1005.1
20260506130227 19 165 0.0 0.0 0.00 0.00 0.00 24 1005.2
20260506130121 19 200 0.0 0.0 0.00 0.00 0.00 23 1005.3
20260506130015 19 210 0.0 0.0 0.00 0.00 0.00 23 1005.1
20260506125907 20 130 0.0 0.0 0.00 0.00 0.00 22 1005.2
20260506125654 20 175 0.0 0.0 0.00 0.00 0.00 21 1005.3
20260506125548 20 170 0.0 0.0 0.00 0.00 0.00 21 1005.2
20260506125441 20 220 0.0 0.0 0.00 0.00 0.00 21 1005.2
20260506125335 20 220 0.0 0.0 0.00 0.00 0.00 21 1005.3
20260506125228 20 195 0.0 0.0 0.00 0.00 0.00 21 1005.1
20260506125121 20 215 0.0 0.0 0.00 0.00 0.00 21 1005.3
20260506125015 20 180 0.0 0.0 0.00 0.00 0.00 21 1005.3
20260506124908 20 155 0.0 0.0 0.00 0.00 0.00 21 1005.3
20260506124657 20 205 0.0 0.0 0.00 0.00 0.00 20 1005.2
20260506124549 20 210 0.0 0.0 0.00 0.00 0.00 19 1005.2
20260506124444 20 220 0.0 0.0 0.00 0.00 0.00 18 1005.3
20260506124339 20 210 0.0 0.0 0.00 0.00 0.00 18 1005.2
20260506124230 20 145 0.0 0.0 0.00 0.00 0.00 18 1005.1
20260506124125 21 150 0.0 0.0 0.00 0.00 0.00 18 1005.2
20260506124016 21 180 0.0 0.0 0.00 0.00 0.00 18 1005.1
20260506123802 21 185 0.0 0.0 0.00 0.00 0.00 18 1005.3
20260506123657 21 160 0.0 0.0 0.00 0.00 0.00 18 1005.2
20260506123550 21 220 0.0 0.0 0.00 0.00 0.00 18 1005.2
20260506123443 21 200 6.4 0.0 0.00 0.00 0.00 17 1005.3
20260506123338 21 220 0.0 0.0 0.00 0.00 0.00 17 1005.1
20260506123230 21 175 0.0 0.0 0.00 0.00 0.00 17 1005.3
20260506123122 21 205 0.0 0.0 0.00 0.00 0.00 17 1005.1
20260506123015 22 215 0.0 0.0 0.00 0.00 0.00 17 1005.3
20260506122908 21 170 0.0 0.0 0.00 0.00 0.00 17 1005.3
20260506122548 21 220 22.5 0.0 0.00 0.00 0.00 17 1005.3
20260506122440 21 200 0.0 0.0 0.00 0.00 0.00 17 1005.3
20260506122227 21 180 0.0 0.0 0.00 0.00 0.00 18 1005.3
20260506122122 21 170 0.0 0.0 0.00 0.00 0.00 18 1005.2
20260506122015 21 200 0.0 0.0 0.00 0.00 0.00 18 1005.2
20260506121907 21 220 0.0 0.0 0.00 0.00 0.00 19 1005.3
20260506121801 21 180 0.0 0.0 0.00 0.00 0.00 19 1005.3
20260506121546 21 200 0.0 0.0 0.00 0.00 0.00 19 1005.3
20260506121440 21 195 0.0 0.0 0.00 0.00 0.00 19 1005.4
20260506121333 21 215 0.0 0.0 0.00 0.00 0.00 19 1005.4
20260506121227 20 200 0.0 0.0 0.00 0.00 0.00 19 1005.3
20260506121014 21 220 12.9 0.0 0.00 0.00 0.00 19 1005.3
20260506120909 21 210 0.0 0.0 0.00 0.00 0.00 19 1005.2
20260506120801 21 170 0.0 0.0 0.00 0.00 0.00 20 1005.2
20260506120654 20 215 0.0 0.0 0.00 0.00 0.00 20 1005.2
20260506120549 20 195 0.0 0.0 0.00 0.00 0.00 20 1005.4
20260506120441 20 210 0.0 0.0 0.00 0.00 0.00 20 1005.3
20260506120333 21 210 0.0 0.0 0.00 0.00 0.00 20 1005.2
20260506120226 20 175 0.0 0.0 0.00 0.00 0.00 21 1005.2
20260506120121 20 180 0.0 0.0 0.00 0.00 0.00 21 1005.4
20260506120014 20 200 0.0 0.0 0.00 0.00 0.00 21 1005.3
20260506115907 21 145 0.0 0.0 0.00 0.00 0.00 21 1005.1
20260506115654 20 215 0.0 0.0 0.00 0.00 0.00 20 1005.1
20260506115548 20 210 0.0 0.0 0.00 0.00 0.00 20 1005.2
20260506115441 20 205 0.0 0.0 0.00 0.00 0.00 20 1005.2
20260506115228 20 150 0.0 0.0 0.00 0.00 0.00 21 1005.3
20260506115122 20 205 0.0 0.0 0.00 0.00 0.00 21 1005.3
20260506115015 20 210 0.0 0.0 0.00 0.00 0.00 21 1005.3
20260506114908 20 220 0.0 0.0 0.00 0.00 0.00 21 1005.3
20260506114656 20 200 12.9 0.0 0.00 0.00 0.00 22 1005.3
20260506114550 21 220 22.5 0.0 0.00 0.00 0.00 22 1005.3
20260506114442 21 200 9.7 0.0 0.00 0.00 0.00 22 1005.3
20260506114336 21 215 3.2 0.0 0.00 0.00 0.00 22 1005.3
20260506114229 21 175 0.0 0.0 0.00 0.00 0.00 22 1005.2
20260506114123 20 195 0.0 0.0 0.00 0.00 0.00 23 1005.4
20260506113909 20 190 0.0 0.0 0.00 0.00 0.00 23 1005.3
20260506113804 21 150 0.0 0.0 0.00 0.00 0.00 23 1005.3
20260506113657 21 210 0.0 0.0 0.00 0.00 0.00 23 1005.3
20260506113550 20 195 0.0 0.0 0.00 0.00 0.00 24 1005.4
20260506113337 20 200 0.0 0.0 0.00 0.00 0.00 24 1005.4
20260506113232 21 195 25.7 0.0 0.00 0.00 0.00 24 1005.4
20260506113124 21 165 9.7 0.0 0.00 0.00 0.00 24 1005.3
20260506113019 20 130 0.0 0.0 0.00 0.00 0.00 24 1005.2
20260506112911 20 200 0.0 0.0 0.00 0.00 0.00 24 1005.3
20260506112805 20 170 12.9 0.0 0.00 0.00 0.00 23 1005.3
20260506112700 20 170 0.0 0.0 0.00 0.00 0.00 23 1005.3
20260506112551 21 175 0.0 0.0 0.00 0.00 0.00 23 1005.4
20260506112447 21 175 0.0 0.0 0.00 0.00 0.00 23 1005.4
20260506112339 20 125 0.0 0.0 0.00 0.00 0.00 23 1005.4
20260506112126 20 130 0.0 0.0 0.00 0.00 0.00 23 1005.3
20260506112019 21 115 0.0 0.0 0.00 0.00 0.00 23 1005.4
20260506111914 20 85 3.2 0.0 0.00 0.00 0.00 23 1005.3
20260506111806 21 150 25.7 0.0 0.00 0.00 0.00 23 1005.3
20260506111659 21 155 0.0 0.0 0.00 0.00 0.00 22 1005.4
20260506111553 21 210 0.0 0.0 0.00 0.00 0.00 22 1005.3
20260506111447 21 170 9.7 0.0 0.00 0.00 0.00 22 1005.5